Location: Izdebno
(52.6670°N, 16.2170°E)
Time: 04:01:45
(UTC+02:00)

SR - Pass Details

Date: 02 March 2024
Orbit: 577 x 862 km, 66.7° (Epoch: 22 April)

Event Time Altitude Azimuth Distance (km) Brightness Sun altitude
Rises 19:26:23 0° 313° (NW) 3,324 ? -17.4°
Reaches altitude 10° 19:29:25 10° 328° (NNW) 2,342 ? -17.8°
Maximum altitude 19:33:36 23° 20° (NNE) 1,570 ? -18.4°
Enters shadow 19:35:26 19° 49° (NE) 1,708 ? -18.7°
Drops below altitude 10° 19:37:32 10° 72° (ENE) 2,185 - -19.0°
Sets 19:40:15 0° 87° (E) 3,046 - -19.4°
